Weather History for Hayward, CA

Change the Weather History Date:

Tuesday, April 8, 2014

  Actual Average Record
Temperature  
Mean Temperature 68 °F 57 °F  
Max Temperature 79 °F 65 °F 79 °F (2014)
Min Temperature 56 °F 48 °F 39 °F (2001)
Degree Days  
Heating Degree Days 0    
Month to date heating degree days 69  
Since 1 July heating degree days 1816  
Cooling Degree Days 3    
Month to date cooling degree days 4  
Year to date cooling degree days 4  
Growing Degree Days 16 (Base 50)    
Moisture  
Dew Point 54 °F    
Average Humidity 67    
Maximum Humidity 86    
Minimum Humidity 48    
Precipitation  
Precipitation 0.00 in - 0.47 in (2005)
Month to date precipitation 0.57  
Year to date precipitation 4.47  
Since 1 July precipitation 5.67  
Sea Level Pressure  
Sea Level Pressure 30.09 in    
Wind  
Wind Speed 5 mph (NW)    
Max Wind Speed 16 mph    
Max Gust Speed 20 mph    
Visibility 10 miles    
Events      
T = Trace of Precipitation, MM = Missing Value Source: NWS Daily Summary

Daily Weather History Graph

Daily Weather History Graph

Search for Another Location

Airport:

Trip Planner

Search our weather history database for the weather conditions in past years. The results will help you decide how hot, cold, wet, or windy it might be!

Date:

Astronomy

Apr. 08, 2014 Rise Set
Actual Time 6:43 AM PDT 7:37 PM PDT
Civil Twilight 6:16 AM PDT 8:04 PM PDT
Nautical Twilight 5:45 AM PDT 8:36 PM PDT
Astronomical Twilight 5:12 AM PDT 9:09 PM PDT
Moon 1:42 PM PDT (4/8) 2:53 AM PDT (4/8)
Length of Visible Light 13h 47m
Length of Day
12h 54m
Waxing Gibbous, 63% of the Moon is Illuminated
Apr 8
Waxing Gibbous
Apr 15
Full
Apr 22
Last Quarter
Apr 28
New
May 6
First Quarter

Hourly Weather History & Observations

Time (PDT) Temp. Dew Point Humidity Pressure Visibility Wind Dir Wind Speed Gust Speed Precip Events Conditions
12:54 AM 62.1 °F 54.0 °F 75% 30.10 in 10.0 mi ENE 3.5 mph - N/A   Clear
1:54 AM 60.1 °F 53.1 °F 78% 30.09 in 10.0 mi ENE 3.5 mph - N/A   Clear
2:54 AM 59.0 °F 52.0 °F 78% 30.09 in 10.0 mi ENE 4.6 mph - N/A   Clear
3:54 AM 57.9 °F 52.0 °F 81% 30.09 in 10.0 mi Calm Calm - N/A   Clear
4:54 AM 57.0 °F 51.1 °F 81% 30.09 in 10.0 mi Calm Calm - N/A   Clear
5:54 AM 57.0 °F 51.1 °F 81% 30.09 in 10.0 mi Calm Calm - N/A   Clear
6:54 AM 55.9 °F 51.1 °F 84% 30.10 in 10.0 mi ENE 4.6 mph - N/A   Clear
7:54 AM 57.9 °F 53.1 °F 84% 30.12 in 10.0 mi Calm Calm - N/A   Clear
8:54 AM 64.0 °F 55.9 °F 75% 30.12 in 10.0 mi Calm Calm - N/A   Clear
9:54 AM 66.9 °F 55.9 °F 68% 30.14 in 10.0 mi Calm Calm - N/A   Clear
10:54 AM 70.0 °F 55.9 °F 61% 30.13 in 10.0 mi Calm Calm - N/A   Clear
11:54 AM 73.0 °F 60.1 °F 64% 30.12 in 10.0 mi West 6.9 mph - N/A   Clear
12:54 PM 73.9 °F 57.0 °F 55% 30.10 in 10.0 mi West 6.9 mph - N/A   Clear
1:54 PM 75.9 °F 57.0 °F 52% 30.09 in 10.0 mi West 9.2 mph - N/A   Clear
2:54 PM 78.1 °F 57.9 °F 50% 30.07 in 10.0 mi WNW 12.7 mph - N/A   Clear
3:54 PM 78.1 °F 59.0 °F 52% 30.05 in 10.0 mi WNW 11.5 mph - N/A   Clear
4:54 PM 73.0 °F 57.0 °F 57% 30.05 in 10.0 mi WNW 15.0 mph - N/A   Clear
5:54 PM 73.0 °F 55.9 °F 55% 30.05 in 10.0 mi WNW 12.7 mph - N/A   Clear
6:54 PM 68.0 °F 54.0 °F 61% 30.05 in 10.0 mi NW 10.4 mph - N/A   Clear
7:54 PM 64.9 °F 52.0 °F 63% 30.06 in 10.0 mi NNW 5.8 mph - N/A   Clear
8:54 PM 63.0 °F 52.0 °F 67% 30.07 in 10.0 mi NW 6.9 mph - N/A   Clear
9:54 PM 61.0 °F 51.1 °F 70% 30.09 in 10.0 mi WNW 4.6 mph - N/A   Clear
10:54 PM 60.1 °F 51.1 °F 72% 30.08 in 10.0 mi NW 3.5 mph - N/A   Clear
11:54 PM 61.0 °F 51.1 °F 70% 30.09 in 10.0 mi Calm Calm - N/A   Clear